Blythe, CA

10:22 PM PST on February 19, 2018 (GMT -0800)
Blythe

Weather History for KBLH - April, 2013

Change the Weather History Date:

Saturday, April 27, 2013

  Actual Average Record
Temperature  
Mean Temperature 80 °F -  
Max Temperature 99 °F 87 °F 104 °F (1996)
Min Temperature 62 °F 58 °F 48 °F (1971)
Cooling Degree Days 16    
Growing Degree Days 30 (Base 50)    
Moisture  
Dew Point 28 °F    
Average Humidity 16    
Maximum Humidity 29    
Minimum Humidity 6    
Precipitation  
Precipitation 0.00 in - - ()
Sea Level Pressure  
Sea Level Pressure 29.93 in    
Wind  
Wind Speed 5 mph (SE)    
Max Wind Speed 15 mph    
Max Gust Speed 22 mph    
Visibility 10 miles    
Events      
Averages and records for this station are not official NWS values.
T = Trace of Precipitation, MM = Missing Value Source: NWS Daily Summary

Daily Weather History Graph

Daily Weather History Graph

Search for Another Location

Airport or City:

Trip Planner

Search our weather history database for the weather conditions in past years. The results will help you decide how hot, cold, wet, or windy it might be!

Date:

Astronomy

Apr. 27, 2013 Rise Set
Actual Time 5:54 AM PDT 7:19 PM PDT
Civil Twilight 5:27 AM PDT 7:45 PM PDT
Nautical Twilight 4:56 AM PDT 8:17 PM PDT
Astronomical Twilight 4:23 AM PDT 8:50 PM PDT
Moon 9:47 PM PDT (4/27) 7:21 AM PDT (4/27)
Length of Visible Light 14h 17m
Length of Day
13h 25m
Waning Gibbous, 95% of the Moon is Illuminated
Apr 27
Waning Gibbous
May 2
Last Quarter
May 9
New
May 17
First Quarter
May 24
Full

Hourly Weather History & Observations

Time (PDT) Temp. Dew Point Humidity Pressure Visibility Wind Dir Wind Speed Gust Speed Precip Events Conditions
12:52 AM 73.0 °F 32.0 °F 22% 29.99 in 10.0 mi NNW 6.9 mph - N/A   Clear
1:52 AM 75.9 °F 26.1 °F 16% 29.98 in 10.0 mi WSW 4.6 mph - N/A   Clear
2:52 AM 66.9 °F 32.0 °F 27% 29.97 in 10.0 mi Calm Calm - N/A   Clear
3:52 AM 64.0 °F 30.9 °F 29% 29.98 in 10.0 mi NW 3.5 mph - N/A   Clear
4:52 AM 64.9 °F 30.9 °F 28% 29.98 in 10.0 mi NW 3.5 mph - N/A   Clear
5:52 AM 62.1 °F 28.9 °F 29% 29.99 in 10.0 mi NNW 4.6 mph - N/A   Clear
6:52 AM 64.9 °F 30.9 °F 28% 30.01 in 10.0 mi NNW 4.6 mph - N/A   Clear
7:52 AM 72.0 °F 34.0 °F 25% 30.02 in 10.0 mi Calm Calm - N/A   Clear
8:52 AM 80.1 °F 30.0 °F 16% 30.02 in 10.0 mi Calm Calm - N/A   Clear
9:52 AM 84.9 °F 37.9 °F 19% 30.01 in 10.0 mi East 3.5 mph - N/A   Clear
10:52 AM 86.0 °F 42.1 °F 21% 30.02 in 10.0 mi ESE 3.5 mph - N/A   Clear
11:52 AM 91.0 °F 37.0 °F 15% 29.99 in 10.0 mi ENE 4.6 mph - N/A   Clear
12:52 PM 96.1 °F 30.0 °F 10% 29.96 in 10.0 mi ESE 4.6 mph - N/A   Clear
1:52 PM 96.1 °F 21.9 °F 7% 29.93 in 10.0 mi Variable 3.5 mph - N/A   Clear
2:52 PM 99.0 °F 19.9 °F 6% 29.89 in 10.0 mi ENE 8.1 mph - N/A   Clear
3:52 PM 98.1 °F 19.9 °F 6% 29.87 in 10.0 mi SSE 15.0 mph 21.9 mph N/A   Clear
4:52 PM 97.0 °F 19.9 °F 6% 29.85 in 10.0 mi South 4.6 mph - N/A   Clear
5:52 PM 96.1 °F 21.0 °F 7% 29.84 in 10.0 mi SSE 8.1 mph - N/A   Clear
6:52 PM 93.0 °F 28.9 °F 10% 29.83 in 10.0 mi South 8.1 mph - N/A   Clear
7:52 PM 89.1 °F 23.0 °F 9% 29.83 in 10.0 mi South 5.8 mph - N/A   Clear
9:52 PM 84.0 °F 19.9 °F 9% 29.84 in 10.0 mi WSW 3.5 mph - N/A   Clear
10:52 PM 75.9 °F 18.0 °F 11% 29.85 in 10.0 mi NNW 5.8 mph - N/A   Clear
11:52 PM 75.9 °F 19.0 °F 12% 29.84 in 10.0 mi NW 5.8 mph - N/A   Clear